Location: Newark
(45.8667°N, 9.7333°E)
Time: 16:29:57
(UTC+00:00)

A-11 Canister half - Pass Details

Date: 24 January 2020
Orbit: 1517 x 1683 km, 47.2° (Epoch: 26 February)

Event Time Altitude Azimuth Distance (km) Brightness Sun altitude
Rises 03:13:57 0° 281° (W) 4,679 - -37.8°
Reaches altitude 10° 03:16:59 10° 282° (WNW) 3,687 - -37.2°
Exits shadow 03:26:08 87° 303° (WNW) 1,524 8.7 -35.7°
Maximum altitude 03:26:18 89° 14° (NNE) 1,523 8.8 -35.6°
Drops below altitude 10° 03:35:39 10° 105° (ESE) 3,706 11.7 -34.0°
Sets 03:38:43 0° 105° (ESE) 4,703 12.5 -33.5°
